Regional Weather Roundup
Issued by NWS

Home | Current Version | Previous Version | Text Only | Print | Product List | Glossary On
Versions: 1 2 3 4 5 6 7 8 9 10 11 12 13 14 15 16 17 18 19 20 21 22 23 24 25 26 27 28 29 30 31 32 33 34 35 36 37 38 39 40 41 42 43 44 45 46 47 48 49 50
000
ASUS43 KDMX 301908
RWRIA

WEATHER ROUNDUP FOR IOWA
NATIONAL WEATHER SERVICE DES MOINES IA
200 PM CDT FRI SEP 30 2016

NOTE: "FAIR" INDICATES FEW OR NO CLOUDS BELOW 12,000 FEET WITH NO
SIGNIFICANT WEATHER AND/OR OBSTRUCTIONS TO VISIBILITY.

* - THESE STATIONS ARE NOT NWS STATIONS...THUS NOT UNDER NWS
QUALITY CONTROL.  THEY ALSO DO NOT REPORT WEATHER SUCH
AS PRECIPITATION OR FOG.

IAZ001>003-012>014-020>022-031>034-043>046-302000-
   NORTHWEST IOWA

CITY           SKY/WX    TMP DP  RH WIND       PRES   REMARKS
CARROLL *      MOSUNNY   70  54  56 NE8G18    30.23F
CHEROKEE *     SUNNY     71  46  41 E9        30.24F
DENISON *      SUNNY     70  48  46 N14       30.20F
LE MARS *      SUNNY     72  46  40 VRB6G14   30.25F
SHELDON *      SUNNY     72  48  43 E9G16     30.24F
SIOUX CITY     SUNNY     73  50  44 E10       30.23F
SPENCER        SUNNY     72  47  40 E14G22    30.25F
STORM LAKE *   SUNNY     72  46  40 NE9G16    30.25F
$$

IAZ055>058-069>071-079>083-090>094-302000-
   SOUTHWEST IOWA

CITY           SKY/WX    TMP DP  RH WIND       PRES   REMARKS
ATLANTIC *     SUNNY     72  48  43 N13G22    30.21F
AUDUBON *      SUNNY     72  52  49 NE14      30.23F
CLARINDA *       N/A     73  48  40 MISG      30.21F
COUNCIL BLFS * SUNNY     72  48  43 NE8       30.21F
CRESTON *      MOSUNNY   68  54  60 E14       30.22F
HARLAN  *      SUNNY     72  46  40 NE12G18   30.24F
LAMONI         MOSUNNY   68  54  60 N15       30.19F
RED OAK *      SUNNY     72  50  46 NE13G18   30.20F
SHENANDOAH *   SUNNY     73  46  38 NE10      30.20F
$$

IAZ047>049-059>061-072>074-084-302000-
   CENTRAL IOWA

CITY           SKY/WX    TMP DP  RH WIND       PRES   REMARKS
AMES           CLOUDY    63  56  78 N8        30.23F
ANKENY *         N/A    N/A N/A N/A MISG        N/A
BOONE *        CLOUDY    63  55  77 N9        30.22F
CHARITON *       N/A     63  54  72 N8        30.21F
DES MOINES     CLOUDY    64  54  69 NE9       30.22F
GRINNELL*      CLOUDY    63  54  72 N6        30.21F
KNOXVILLE *    CLOUDY    63  54  72 N8        30.19F
MARSHALLTOWN   CLOUDY    64  56  75 N13       30.21F
NEWTON *       CLOUDY    64  54  68 N8        30.20F
PELLA *        CLOUDY    64  54  69 N5        30.21F
PERRY *        CLOUDY    65  56  72 NE9G16    30.24F HAZE
$$

IAZ004>006-015-016-023>025-035-036-302000-
   NORTH CENTRAL IOWA

CITY           SKY/WX    TMP DP  RH WIND       PRES   REMARKS
ALGONA *       SUNNY     70  52  52 E10       30.24F
CLARION *      CLOUDY    68  54  60 NE10      30.23F
ESTHERVILLE    SUNNY     69  50  50 NE8       30.25F
FORT DODGE *   CLOUDY    66  54  63 E9        30.24F
MASON CITY     CLOUDY    68  53  58 NE10G17   30.25F
FOREST CITY *  CLOUDY    70  52  52 NE10      30.24F
WEBSTER CITY * CLOUDY    66  57  72 NE12      30.22F
IOWA FALLS *   CLOUDY    64  55  73 NE8       30.24F
$$

IAZ007>011-017>019-026>030-037>042-050>054-066-302000-
   NORTHEAST IOWA

CITY           SKY/WX    TMP DP  RH WIND       PRES   REMARKS
CEDAR RAPIDS   CLOUDY    63  57  81 NE7       30.18F
CHARLES CITY * CLOUDY    64  55  72 NE9G15    30.25F
CLINTON *      CLOUDY    66  58  75 NE13      30.15F
DECORAH *      CLOUDY    63  55  77 NE9       30.23F
DUBUQUE        CLOUDY    60  56  86 N9        30.20F
MONTICELLO *   CLOUDY    63  55  77 NE8       30.18F
OELWEIN *      CLOUDY    63  55  77 NE8G17    30.23F
WATERLOO       CLOUDY    64  54  69 NE12      30.22F
$$

IAZ064-065-067-068-078-302000-
   EAST CENTRAL IOWA

CITY           SKY/WX    TMP DP  RH WIND       PRES   REMARKS
DAVENPORT      CLOUDY    64  57  78 N8        30.16F
IOWA CITY      CLOUDY    64  56  75 N10       30.19F
MT. PLEASANT * CLOUDY    68  57  67 NE10      30.16F
MUSCATINE *    CLOUDY    66  55  68 N9        30.17S
QUAD CITIES    CLOUDY    66  57  72 NW10      30.14F
$$

IAZ062-063-075>077-085>089-095>099-302000-
   SOUTHEAST IOWA

CITY           SKY/WX    TMP DP  RH WIND       PRES   REMARKS
BURLINGTON     CLOUDY    64  58  80 N14       30.14F
FAIRFIELD *    CLOUDY    66  55  68 NE10G16   30.17F
FORT MADISON *   N/A     64  57  77 NE6       30.15F
KEOKUK *       CLOUDY    66  57  72 NE9G17    30.14F
OSKALOOSA *    CLOUDY    64  54  72 N9        30.19F
OTTUMWA        CLOUDY    65  54  67 N7        30.18F
WASHINGTON *     N/A    N/A N/A N/A MISG        N/A
$$

ABBREVIATIONS USED IN REMARKS
   TC - TEMPERATURES IN CELSIUS
  WCI - WIND CHILL INDEX
   HX - HEAT INDEX
  VSB - VISIBILITY
$$





USA.gov is the U.S. government's official web portal to all federal, state and local government web resources and services.